Weather History for Jackson, MN

Change the Weather History Date:

Tuesday, January 22, 2013

  Actual Average Record
Temperature  
Mean Temperature 5 °F -  
Max Temperature 14 °F 22 °F 51 °F (2002)
Min Temperature -4 °F 6 °F -7 °F (2004)
Degree Days  
Heating Degree Days 60    
Moisture  
Dew Point -3 °F    
Average Humidity 64    
Maximum Humidity 79    
Minimum Humidity 52    
Precipitation  
Precipitation 0.00 in - - ()
Sea Level Pressure  
Sea Level Pressure 30.26 in    
Wind  
Wind Speed 7 mph (West)    
Max Wind Speed 14 mph    
Max Gust Speed 16 mph    
Visibility 10 miles    
Events Snow    
Averages and records for this station are not official NWS values.
T = Trace of Precipitation, MM = Missing Value Source: NWS Daily Summary

Daily Weather History Graph

Daily Weather History Graph

Search for Another Location

Airport:

Trip Planner

Search our weather history database for the weather conditions in past years. The results will help you decide how hot, cold, wet, or windy it might be!

Date:

Astronomy

Jan. 22, 2013 Rise Set
Actual Time 7:45 AM CST 5:18 PM CST
Civil Twilight 7:14 AM CST 5:49 PM CST
Nautical Twilight 6:39 AM CST 6:24 PM CST
Astronomical Twilight 6:05 AM CST 6:58 PM CST
Moon 1:40 PM CST (1/22) 4:09 AM CST (1/22)
Length of Visible Light 10h 34m
Length of Day
9h 32m
Waxing Gibbous, 83% of the Moon is Illuminated
Jan 22
Waxing Gibbous
Jan 26
Full
Feb 3
Last Quarter
Feb 10
New
Feb 17
First Quarter

Hourly Weather History & Observations

Time (CST) Temp. Windchill Dew Point Humidity Pressure Visibility Wind Dir Wind Speed Gust Speed Precip Events Conditions
12:12 AM 1.4 °F -15.3 °F -7.6 °F 66% 30.27 in 10.0 mi WNW 11.5 mph 16.1 mph N/A   Clear
12:33 AM 1.4 °F -16.9 °F -7.6 °F 66% 30.27 in 10.0 mi WNW 13.8 mph - N/A   Clear
12:53 AM 1.4 °F -15.3 °F -7.6 °F 66% 30.27 in 10.0 mi NW 11.5 mph - N/A   Clear
1:12 AM 1.4 °F -13.5 °F -7.6 °F 66% 30.27 in 10.0 mi WNW 9.2 mph - N/A   Clear
1:33 AM 1.4 °F -14.5 °F -7.6 °F 66% 30.28 in 10.0 mi WNW 10.4 mph 16.1 mph N/A   Clear
1:53 AM 1.4 °F -13.5 °F -7.6 °F 66% 30.28 in 10.0 mi WNW 9.2 mph - N/A   Clear
2:12 AM 1.4 °F -13.5 °F -7.6 °F 66% 30.28 in 10.0 mi NW 9.2 mph - N/A   Scattered Clouds
2:33 AM 1.4 °F -14.5 °F -7.6 °F 66% 30.29 in 10.0 mi NW 10.4 mph - N/A   Scattered Clouds
2:53 AM 1.4 °F -12.5 °F -7.6 °F 66% 30.28 in 10.0 mi WNW 8.1 mph - N/A   Clear
3:13 AM -0.4 °F -13.4 °F -7.6 °F 72% 30.28 in 10.0 mi NW 6.9 mph - N/A   Clear
3:33 AM -0.4 °F -12.0 °F -7.6 °F 72% 30.29 in 10.0 mi WNW 5.8 mph - N/A   Clear
3:53 AM -0.4 °F -13.4 °F -9.4 °F 66% 30.28 in 10.0 mi WNW 6.9 mph - N/A   Clear
4:13 AM -0.4 °F -13.4 °F -9.4 °F 66% 30.28 in 10.0 mi NW 6.9 mph - N/A   Clear
4:33 AM -0.4 °F -12.0 °F -9.4 °F 66% 30.28 in 10.0 mi NW 5.8 mph - N/A   Clear
4:53 AM -2.2 °F -14.2 °F -9.4 °F 71% 30.28 in 10.0 mi NW 5.8 mph - N/A   Clear
5:13 AM -2.2 °F -14.2 °F -9.4 °F 71% 30.28 in 10.0 mi WNW 5.8 mph - N/A   Clear
5:33 AM -2.2 °F -10.4 °F -9.4 °F 71% 30.28 in 10.0 mi WNW 3.5 mph - N/A   Clear
5:53 AM -4.0 °F -12.4 °F -9.4 °F 78% 30.29 in 10.0 mi WNW 3.5 mph - N/A   Clear
6:13 AM -4.0 °F -12.4 °F -9.4 °F 78% 30.29 in 10.0 mi West 3.5 mph - N/A   Clear
6:33 AM -4.0 °F - -9.4 °F 78% 30.30 in 10.0 mi Calm Calm - N/A   Clear
6:53 AM -4.0 °F - -9.4 °F 78% 30.30 in 10.0 mi Calm Calm - N/A   Clear
7:13 AM -2.2 °F -12.5 °F -9.4 °F 71% 30.30 in 10.0 mi NW 4.6 mph - N/A   Clear
7:33 AM -0.4 °F - -7.6 °F 72% 30.30 in 10.0 mi Calm Calm - N/A   Clear
7:52 AM -0.4 °F -8.3 °F -7.6 °F 72% 30.30 in 10.0 mi NW 3.5 mph - N/A   Clear
8:13 AM -0.4 °F -8.3 °F -7.6 °F 72% 30.29 in 10.0 mi West 3.5 mph - N/A   Clear
8:33 AM -0.4 °F - -7.6 °F 72% 30.30 in 10.0 mi Calm Calm - N/A   Clear
8:52 AM 1.4 °F -6.2 °F -7.6 °F 66% 30.31 in 10.0 mi NW 3.5 mph - N/A   Clear
9:13 AM 1.4 °F -6.2 °F -7.6 °F 66% 30.30 in 10.0 mi WNW 3.5 mph - N/A   Clear
9:33 AM 3.2 °F - -7.6 °F 61% 30.31 in 10.0 mi Calm Calm - N/A   Clear
9:52 AM 3.2 °F -9.1 °F -7.6 °F 61% 30.32 in 10.0 mi West 6.9 mph - N/A   Clear
10:13 AM 3.2 °F -9.1 °F -5.8 °F 66% 30.32 in 10.0 mi West 6.9 mph - N/A   Clear
10:33 AM 5.0 °F -6.9 °F -5.8 °F 61% 30.33 in 10.0 mi West 6.9 mph - N/A   Clear
10:52 AM 5.0 °F -8.1 °F -7.6 °F 56% 30.33 in 10.0 mi WSW 8.1 mph - N/A   Clear
11:13 AM 6.8 °F -7.8 °F -5.8 °F 56% 30.33 in 10.0 mi West 10.4 mph - N/A   Clear
11:32 AM 8.6 °F -2.6 °F -5.8 °F 52% 30.31 in 10.0 mi WSW 6.9 mph - N/A   Clear
11:53 AM 8.6 °F -4.7 °F -5.8 °F 52% 30.31 in 10.0 mi West 9.2 mph - N/A   Clear
12:13 PM 8.6 °F -1.3 °F -4.0 °F 57% 30.31 in 10.0 mi West 5.8 mph 9.2 mph N/A   Clear
12:32 PM 10.4 °F -1.5 °F -4.0 °F 52% 30.30 in 10.0 mi WSW 8.1 mph - N/A   Scattered Clouds
12:53 PM 10.4 °F -2.4 °F -4.0 °F 52% 30.28 in 10.0 mi West 9.2 mph - N/A   Mostly Cloudy
1:13 PM 10.4 °F 2.2 °F -4.0 °F 52% 30.27 in 10.0 mi SW 4.6 mph - N/A   Overcast
1:32 PM 10.4 °F 0.8 °F -4.0 °F 52% 30.26 in 10.0 mi West 5.8 mph - N/A   Overcast
1:53 PM 10.4 °F -0.4 °F -4.0 °F 52% 30.26 in 10.0 mi WSW 6.9 mph - N/A   Overcast
2:13 PM 12.2 °F 0.7 °F -2.2 °F 53% 30.26 in 10.0 mi WSW 8.1 mph - N/A   Overcast
2:32 PM 12.2 °F 4.3 °F -0.4 °F 57% 30.25 in 10.0 mi West 4.6 mph - N/A   Overcast
2:53 PM 12.2 °F 0.7 °F -0.4 °F 57% 30.25 in 10.0 mi SW 8.1 mph - N/A   Overcast
3:13 PM 12.2 °F -0.2 °F -0.4 °F 57% 30.25 in 10.0 mi WSW 9.2 mph - N/A   Overcast
3:32 PM 14.0 °F 5.1 °F -0.4 °F 53% 30.24 in 10.0 mi West 5.8 mph - N/A   Overcast
3:53 PM 12.2 °F 4.3 °F -0.4 °F 57% 30.25 in 10.0 mi West 4.6 mph - N/A   Overcast
4:13 PM 14.0 °F 6.5 °F 1.4 °F 57% 30.24 in 10.0 mi West 4.6 mph - N/A   Overcast
4:32 PM 12.2 °F 6.1 °F -0.4 °F 57% 30.23 in 10.0 mi West 3.5 mph - N/A   Overcast
4:53 PM 14.0 °F 8.2 °F 1.4 °F 57% 30.24 in 10.0 mi WSW 3.5 mph - N/A   Overcast
5:13 PM 14.0 °F 6.5 °F 1.4 °F 57% 30.23 in 10.0 mi SW 4.6 mph - N/A   Overcast
5:32 PM 14.0 °F 8.2 °F 1.4 °F 57% 30.24 in 10.0 mi WSW 3.5 mph - N/A   Overcast
5:53 PM 14.0 °F 8.2 °F 1.4 °F 57% 30.23 in 10.0 mi SW 3.5 mph - N/A   Overcast
6:13 PM 14.0 °F 6.5 °F 3.2 °F 62% 30.23 in 10.0 mi SW 4.6 mph - N/A   Overcast
6:33 PM 14.0 °F 3.9 °F 3.2 °F 62% 30.22 in 10.0 mi SW 6.9 mph - N/A   Overcast
6:53 PM 14.0 °F 2.9 °F 3.2 °F 62% 30.23 in 10.0 mi SW 8.1 mph - N/A   Overcast
7:13 PM 14.0 °F 3.9 °F 1.4 °F 57% 30.22 in 10.0 mi SW 6.9 mph - N/A   Overcast
7:33 PM 14.0 °F 5.1 °F 3.2 °F 62% 30.22 in 10.0 mi SSW 5.8 mph - N/A   Overcast
7:52 PM 14.0 °F 6.5 °F 3.2 °F 62% 30.22 in 10.0 mi SSW 4.6 mph - N/A   Overcast
8:13 PM 14.0 °F 3.9 °F 3.2 °F 62% 30.21 in 10.0 mi SSW 6.9 mph - N/A   Overcast
8:33 PM 14.0 °F 3.9 °F 3.2 °F 62% 30.20 in 10.0 mi SSW 6.9 mph - N/A Snow Light Snow
8:52 PM 14.0 °F 2.0 °F 3.2 °F 62% 30.19 in 10.0 mi SSW 9.2 mph - N/A Snow Light Snow
9:13 PM 14.0 °F 2.0 °F 5.0 °F 67% 30.19 in 10.0 mi SSW 9.2 mph - N/A Snow Light Snow
9:33 PM 14.0 °F 2.0 °F 5.0 °F 67% 30.19 in 10.0 mi South 9.2 mph - N/A Snow Light Snow
9:52 PM 14.0 °F 2.0 °F 5.0 °F 67% 30.18 in 10.0 mi South 9.2 mph - N/A Snow Light Snow
10:13 PM 14.0 °F 2.0 °F 5.0 °F 67% 30.17 in 10.0 mi SSW 9.2 mph - N/A Snow Light Snow
10:33 PM 14.0 °F 2.9 °F 5.0 °F 67% 30.17 in 10.0 mi South 8.1 mph - N/A   Overcast
10:52 PM 14.0 °F 3.9 °F 6.8 °F 73% 30.18 in 10.0 mi SSW 6.9 mph - N/A   Overcast
11:13 PM 14.0 °F 2.0 °F 6.8 °F 73% 30.16 in 10.0 mi SSW 9.2 mph - N/A   Overcast
11:33 PM 14.0 °F 1.2 °F 8.6 °F 79% 30.16 in 10.0 mi SSW 10.4 mph - N/A   Overcast
11:53 PM 14.0 °F 3.9 °F 8.6 °F 79% 30.16 in 10.0 mi SSW 6.9 mph - N/A   Overcast